Location: Newark
(41.7300°N, 13.7500°E)
Time: 02:48:06
(UTC+00:00)

PCSat - Visible Passes

Search period start: 05 December 2020 00:00
Search period end: 15 December 2020 00:00
Orbit: 784 x 795 km, 67.1° (Epoch: 03 December)

Date Brightness Start Highest point End Pass type
(mag) Time Alt. Az. Time Alt. Az. Time Alt. Az.
10 Dec 11.9 05:30:15 10° N 05:32:57 14° NE 05:35:39 10° ENE visible
11 Dec 12.1 05:00:16 10° NNE 05:01:35 11° NE 05:02:53 10° NE visible
13 Dec 11.2 05:39:18 10° N 05:44:01 29° NE 05:48:42 10° ESE visible
14 Dec 11.5 05:08:33 10° N 05:12:48 23° NE 05:17:02 10° E visible
